This is the latest recevied weather packets stored in our database for station/object KL1SF-7. If no packets are shown the sender has not sent any weather packets the latest 10 day(s).
| Time | Temp. | Humidity | Pressure | Rain* | Wind** | Luminosity | Snow |
|---|---|---|---|---|---|---|---|
| 1777184607 | 7.78° C | 28% | 1008.8 hPa | 0 mm | - | - | - |
| 1777184016 | 7.78° C | 27% | 1008.8 hPa | 0 mm | - | - | - |
| 1777183430 | 7.78° C | 26% | 1008.8 hPa | 0 mm | - | - | - |
| 1777182810 | 7.78° C | 26% | 1009 hPa | 0 mm | - | - | - |
| 1777182219 | 7.78° C | 25% | 1009 hPa | 0 mm | - | - | - |
| 1777181611 | 7.78° C | 25% | 1009.2 hPa | 0 mm | - | - | - |
| 1777181016 | 7.78° C | 26% | 1009.4 hPa | 0 mm | - | - | - |
| 1777180412 | 7.78° C | 27% | 1009.4 hPa | 0 mm | - | - | - |
| 1777179828 | 7.78° C | 27% | 1009.2 hPa | 0 mm | - | - | - |
| 1777179209 | 7.78° C | 27% | 1009.6 hPa | 0 mm | - | - | - |
| 1777178619 | 7.78° C | 28% | 1009.6 hPa | 0 mm | - | - | - |
| 1777178011 | 7.78° C | 28% | 1009.5 hPa | 0 mm | - | - | - |
| 1777177417 | 7.78° C | 28% | 1009.6 hPa | 0 mm | - | - | - |
| 1777176806 | 8.33° C | 28% | 1009.6 hPa | 0 mm | - | - | - |
| 1777176218 | 8.33° C | 28% | 1009.8 hPa | 0 mm | - | - | - |
| 1777175620 | 8.33° C | 29% | 1009.7 hPa | 0 mm | - | - | - |
| 1777175010 | 8.33° C | 31% | 1009.7 hPa | 0 mm | - | - | - |
| 1777174422 | 8.33° C | 32% | 1009.8 hPa | 0 mm | - | - | - |
| 1777173806 | 8.33° C | 33% | 1009.9 hPa | 0 mm | - | - | - |
| 1777173215 | 8.89° C | 34% | 1009.9 hPa | 0 mm | - | - | - |
| 1777172628 | 8.89° C | 32% | 1010.2 hPa | 0 mm | - | - | - |
| 1777172008 | 8.89° C | 30% | 1010.1 hPa | 0 mm | - | - | - |
| 1777171418 | 8.89° C | 31% | 1010.1 hPa | 0 mm | - | - | - |
| 1777170810 | 8.89° C | 34% | 1010.1 hPa | 0 mm | - | - | - |
| 1777170211 | 8.89° C | 33% | 1009.8 hPa | 0 mm | - | - | - |
* Rain since midnight (hover to see other rain measurements)
** Current wind speed in m/s (hover to see current wind gust speed)